Regional Weather Roundup
Issued by NWS Huntsville, AL

Home | Current Version | Previous Version | Text Only | Print | Product List | Glossary On
Versions: 1 2 3 4 5 6 7 8 9 10 11 12 13 14 15 16 17 18 19 20 21 22 23 24 25 26 27 28 29 30 31 32 33 34 35 36 37 38 39 40 41 42 43 44 45 46 47 48 49 50
000
ASUS44 KHUN 041410
RWRHUN

WEATHER ROUNDUP FOR THE TENNESSEE VALLEY
NATIONAL WEATHER SERVICE HUNTSVILLE AL
900 AM CDT WED MAY 04 2016

ALZ001>004-041500-
NORTHWEST ALABAMA

CITY           SKY/WX    TMP DP  RH WIND       PRES   REMARKS
COURTLAND HCN    N/A     59 N/A N/A NW6         N/A
RUSSELLVILLE     N/A     59 N/A N/A MISG        N/A
SHOALS AIRPORT SUNNY     62  48  60 W10       29.89S
SHOALS TVA RES   N/A     57 N/A N/A MISG        N/A
$$

ALZ005>007-016-041500-
NORTH CENTRAL ALABAMA

CITY           SKY/WX    TMP DP  RH WIND       PRES   REMARKS
CULLMAN AG STN   N/A     59 N/A N/A NW5         N/A
DECATUR AP     SUNNY     59  52  77 W7        29.88F
HUNTSVILLE AP  SUNNY     62  51  67 NW6       29.87F
HUN NWS/UAH      N/A     60  47  62 NW6         N/A
MERIDIANVILLE  SUNNY     59  45  58 W6        29.87F
REDSTONE ARSN  SUNNY     59  50  72 NW3       29.86F
VINEMONT AP    FAIR      58  49  70 NW6       29.90F
$$

ALZ008>010-041500-
NORTHEAST ALABAMA

CITY           SKY/WX    TMP DP  RH WIND       PRES   REMARKS
ALBERTVILLE    SUNNY     59  54  82 N10G18    29.86F
FORT PAYNE     MOSUNNY   59  43  55 NW12      29.85F
SCOTTSBORO AP  SUNNY     59  48  67 W6        29.87F HAZE
SCOTTSBORO HCN   N/A     59 N/A N/A MISG        N/A
VALLEY HEAD      N/A     55 N/A N/A MISG        N/A
$$

TNZ076-096-097-041500-
SOUTHEASTERN MIDDLE TENNESSEE

CITY           SKY/WX    TMP DP  RH WIND       PRES   REMARKS
TULLAHOMA      SUNNY     57  50  77 NW7       29.86F
WINCHESTER     SUNNY     57  48  72 VRB6      29.87S
$$

...SURROUNDING SITES...

CITY           SKY/WX    TMP DP  RH WIND       PRES   REMARKS
ATLANTA        MOSUNNY   62  46  55 NW16      29.83S
ANNISTON       SUNNY     62  47  57 NW8       29.86F
BIRMINGHAM     MOSUNNY   60  51  72 NW8       29.90F
CHATTANOOGA    MOSUNNY   60  45  57 VRB5      29.85F
DALTON         SUNNY     59  46  63 NW9G17    29.84F
GADSDEN        SUNNY     62  51  67 VRB6      29.87F
GOLDEN TRNGL   SUNNY     63  50  63 NW9       29.90F
HALEYVILLE     FAIR      60  49  66 VRB5      29.91F
JACKSON TN     MOSUNNY   61  49  64 W12       29.85F
MEMPHIS        PTSUNNY   62  48  60 W8        29.89F
NASHVILLE      SUNNY     61  47  59 W9        29.83F
OXFORD MS      FAIR      57  50  77 W5        29.93F
ROME           SUNNY     61  47  59 NW9       29.84F
SAVANNAH       SUNNY     61  50  67 VRB3      29.87F
TUPELO         SUNNY     63  49  60 VRB5      29.90F
TUSCALOOSA     SUNNY     62  51  67 NW9       29.91F
$$

...GULF COAST WEATHER...

CITY           SKY/WX    TMP DP  RH WIND       PRES   REMARKS
GULFPORT       SUNNY     64  49  57 N16G24    29.93R
PASCAGOULA     MOSUNNY   64  51  62 N13       29.93R
MOBILE         MOSUNNY   64  53  67 N13       29.93R
GULF SHORES    SUNNY     65  54  68 N9G18     29.90R
PENSACOLA      MOSUNNY   68  52  56 N9        29.88S
DESTIN         SUNNY     69  57  65 N7        29.88R
PANAMA CITY    PTSUNNY   69  58  67 N9        29.86R
APPALACHICOLA  PTSUNNY   71  61  70 N14       29.84S
$$




USA.gov is the U.S. government's official web portal to all federal, state and local government web resources and services.